Stündliche Wetter Celiny

Heute, 24 Januar, Sonntag

Zeit Temperatur Niederschläge Wind Luftdruck Luftfeuchtigkeit
00:00 +2°C° 0 mm 3 m/S 733 mmHg 91%
01:00 +2°C° 0 mm 3 m/S 733 mmHg 92%
02:00 +1°C° 0 mm 3 m/S 733 mmHg 91%
03:00 +2°C° 0 mm 2 m/S 733 mmHg 91%
04:00 +1°C° 0 mm 2 m/S 732 mmHg 91%
05:00 +1°C° 0 mm 2 m/S 732 mmHg 90%
06:00 -1°C° 0 mm 2 m/S 733 mmHg 89%
07:00 -1°C° 0 mm 2 m/S 733 mmHg 88%
08:00 -1°C° 0.1 mm 2 m/S 733 mmHg 90%
09:00 -1°C° 0.1 mm 2 m/S 732 mmHg 92%
10:00 -1°C° 0.1 mm 2 m/S 732 mmHg 94%
11:00 -1°C° 0.4 mm 2 m/S 732 mmHg 95%
12:00 -1°C° 0.4 mm 2 m/S 732 mmHg 96%
13:00 -1°C° 0.4 mm 2 m/S 732 mmHg 97%
14:00 -1°C° 0.5 mm 3 m/S 732 mmHg 97%
15:00 -1°C° 0.5 mm 3 m/S 732 mmHg 97%
16:00 -1°C° 0.5 mm 3 m/S 732 mmHg 98%
17:00 -1°C° 0.2 mm 3 m/S 732 mmHg 98%
18:00 -1°C° 0.2 mm 3 m/S 733 mmHg 97%
19:00 -1°C° 0.2 mm 3 m/S 733 mmHg 97%
20:00 -1°C° 0.1 mm 3 m/S 733 mmHg 97%
21:00 -2°C° 0.1 mm 4 m/S 733 mmHg 97%
22:00 -2°C° 0.1 mm 4 m/S 734 mmHg 97%
23:00 -2°C° 0 mm 4 m/S 734 mmHg 96%

Morgen, 25 Januar, Montag

Zeit Temperatur Niederschläge Wind Luftdruck Luftfeuchtigkeit
00:00 -1°C° 0 mm 3 m/S 734 mmHg 95%
01:00 -1°C° 0 mm 3 m/S 735 mmHg 93%
02:00 -1°C° 0 mm 3 m/S 735 mmHg 92%
03:00 -1°C° 0 mm 3 m/S 735 mmHg 91%
04:00 -2°C° 0 mm 3 m/S 735 mmHg 89%
05:00 -2°C° 0 mm 2 m/S 736 mmHg 91%
06:00 -2°C° 0 mm 2 m/S 736 mmHg 93%
07:00 -2°C° 0 mm 2 m/S 736 mmHg 94%
08:00 -2°C° 0 mm 2 m/S 737 mmHg 94%
09:00 -2°C° 0 mm 2 m/S 737 mmHg 93%
10:00 -1°C° 0 mm 2 m/S 737 mmHg 92%
11:00 -1°C° 0 mm 2 m/S 737 mmHg 91%
12:00 -1°C° 0 mm 2 m/S 737 mmHg 90%
13:00 -1°C° 0 mm 2 m/S 737 mmHg 88%
14:00 -1°C° 0 mm 2 m/S 737 mmHg 89%
15:00 -1°C° 0 mm 2 m/S 737 mmHg 90%
16:00 -1°C° 0 mm 3 m/S 737 mmHg 90%
17:00 -1°C° 0 mm 3 m/S 737 mmHg 90%
18:00 -2°C° 0 mm 4 m/S 738 mmHg 90%
19:00 -2°C° 0 mm 5 m/S 738 mmHg 90%
20:00 -4°C° 0 mm 5 m/S 738 mmHg 88%
21:00 -4°C° 0 mm 6 m/S 737 mmHg 86%
22:00 -4°C° 0 mm 7 m/S 737 mmHg 83%
23:00 -4°C° 0 mm 7 m/S 737 mmHg 83%

übermorgen, 26 Januar, Dienstag

Zeit Temperatur Niederschläge Wind Luftdruck Luftfeuchtigkeit
00:00 -4°C° 0 mm 7 m/S 737 mmHg 83%
01:00 -4°C° 0 mm 7 m/S 736 mmHg 83%
02:00 -5°C° 0 mm 8 m/S 736 mmHg 83%
03:00 -5°C° 0 mm 8 m/S 736 mmHg 83%
04:00 -5°C° 0 mm 8 m/S 736 mmHg 84%
05:00 -5°C° 0 mm 8 m/S 736 mmHg 84%
06:00 -5°C° 0 mm 8 m/S 736 mmHg 85%
07:00 -5°C° 0 mm 9 m/S 736 mmHg 86%
08:00 -5°C° 0 mm 9 m/S 736 mmHg 85%
09:00 -5°C° 0 mm 9 m/S 736 mmHg 85%
10:00 -5°C° 0 mm 9 m/S 736 mmHg 84%
11:00 -4°C° 0 mm 9 m/S 736 mmHg 83%
12:00 -4°C° 0 mm 9 m/S 736 mmHg 82%
13:00 -4°C° 0 mm 10 m/S 736 mmHg 81%
14:00 -4°C° 0.1 mm 10 m/S 737 mmHg 84%
15:00 -4°C° 0.1 mm 10 m/S 737 mmHg 87%
16:00 -4°C° 0.1 mm 9 m/S 738 mmHg 90%
17:00 -4°C° 0.1 mm 9 m/S 738 mmHg 90%
18:00 -4°C° 0.1 mm 9 m/S 738 mmHg 89%
19:00 -5°C° 0.1 mm 9 m/S 738 mmHg 88%
20:00 -4°C° 0.1 mm 9 m/S 739 mmHg 89%
21:00 -4°C° 0.1 mm 9 m/S 739 mmHg 90%
22:00 -4°C° 0.1 mm 8 m/S 739 mmHg 90%
23:00 -4°C° 0.1 mm 8 m/S 739 mmHg 89%

27 Januar, Mittwoch

Zeit Temperatur Niederschläge Wind Luftdruck Luftfeuchtigkeit
00:00 -4°C° 0.1 mm 9 m/S 739 mmHg 88%
01:00 -5°C° 0.1 mm 9 m/S 739 mmHg 87%
02:00 -5°C° 0 mm 8 m/S 739 mmHg 86%
03:00 -5°C° 0 mm 8 m/S 740 mmHg 85%
04:00 -5°C° 0 mm 8 m/S 740 mmHg 84%
05:00 -5°C° 0 mm 8 m/S 740 mmHg 85%
06:00 -6°C° 0 mm 7 m/S 740 mmHg 86%
07:00 -6°C° 0 mm 7 m/S 740 mmHg 87%
08:00 -4°C° 0 mm 7 m/S 740 mmHg 86%
09:00 -4°C° 0 mm 6 m/S 741 mmHg 85%
10:00 -4°C° 0 mm 6 m/S 741 mmHg 83%
11:00 -4°C° 0 mm 6 m/S 741 mmHg 83%
12:00 -3°C° 0 mm 6 m/S 741 mmHg 83%
13:00 -2°C° 0 mm 5 m/S 741 mmHg 82%
14:00 -2°C° 0 mm 5 m/S 741 mmHg 83%
15:00 -2°C° 0 mm 4 m/S 741 mmHg 84%
16:00 -1°C° 0 mm 3 m/S 742 mmHg 85%
17:00 -1°C° 0 mm 3 m/S 742 mmHg 87%
18:00 -2°C° 0 mm 3 m/S 742 mmHg 89%
19:00 -2°C° 0 mm 3 m/S 742 mmHg 91%
20:00 -2°C° 0 mm 3 m/S 743 mmHg 91%
21:00 -2°C° 0 mm 3 m/S 743 mmHg 91%
22:00 -2°C° 0 mm 3 m/S 743 mmHg 91%
23:00 -2°C° 0 mm 3 m/S 743 mmHg 91%

28 Januar, Donnerstag

Zeit Temperatur Niederschläge Wind Luftdruck Luftfeuchtigkeit
00:00 -2°C° 0 mm 3 m/S 743 mmHg 90%
01:00 -2°C° 0 mm 3 m/S 743 mmHg 90%
02:00 -4°C° 0 mm 3 m/S 743 mmHg 90%
03:00 -4°C° 0 mm 3 m/S 743 mmHg 90%
04:00 -4°C° 0 mm 3 m/S 743 mmHg 91%
05:00 -4°C° 0 mm 3 m/S 743 mmHg 90%
06:00 -4°C° 0 mm 3 m/S 744 mmHg 90%
07:00 -2°C° 0 mm 3 m/S 744 mmHg 90%
08:00 -2°C° 0 mm 3 m/S 744 mmHg 90%
09:00 -2°C° 0 mm 3 m/S 744 mmHg 89%
10:00 -2°C° 0 mm 3 m/S 744 mmHg 89%
11:00 -2°C° 0 mm 3 m/S 743 mmHg 87%
12:00 -1°C° 0 mm 3 m/S 743 mmHg 85%
13:00 -1°C° 0 mm 3 m/S 743 mmHg 82%
14:00 -1°C° 0 mm 2 m/S 743 mmHg 82%
15:00 -2°C° 0 mm 2 m/S 743 mmHg 82%
16:00 0°C° 0 mm 1 m/S 742 mmHg 83%
17:00 0°C° 0 mm 1 m/S 742 mmHg 83%
18:00 0°C° 0 mm 1 m/S 742 mmHg 84%
19:00 -2°C° 0 mm 0 m/S 742 mmHg 84%

29 Januar, Freitag

Zeit Temperatur Niederschläge Wind Luftdruck Luftfeuchtigkeit
Mehr zeigen

Wir brauchen deine Erlaubnis

Meteoprog und unser Service Anbieter werden persönliche Daten aufbewahren, so wie Cookies, Geräte Bezeichnung oder ähnliche Technologien von deinem Gerät und Prozess, so wie Persönliche Daten Inhalte und Werbungen, genauso wie social Media und den Verkehr zu analysieren.

  • Aufbewahrung und/oder Zugang zu deiner Geräte Informationen.

    Cookies, Geräte Bezeichnung oder andere Informationen, können aufbewahrt oder Zugang zu deinem Gerät erhalten, für den Grund, der oben angegeben wird.

  • Personalisierte Werbung und Inhalte, Messungen, Einblick in das Publikum und Produkt Entwicklung.

    Werbungen und Inhalte können personalisiert werden, basierend auf ein Profil. Mehr Daten können besser personalisierte Werbungen und Inhalte hinzufügen. Werbung und Inhalte können gezeigt und gemessen werden. Einblicke über das Publikum, welche die Werbung gesehen haben und den Inhalt, können abgeleitet werden. So wie Daten können genutzt werden, um es zu verbessern oder die Benutzer Erfahrung zu verbessern das System und die Software.

Wenn du “Ich stimme zu” klickst, erlaubst du uns, die Cookies zu benutzen die Geräte Bezeichnung, den Web oder ähnliche Technologien zu benutzen. Deine Settings, können in deinem Gerät bei deinem Browser geändert werden.

Für den bestimmten Zweck, berechtigten Interessen beruhen darauf, mehr als auf den Inhalt. Du kannst mehr darüber in unseren Privaten und Cookie Politik lesen.